Regional Weather Roundup
Issued by NWS Sioux Falls, SD

Home | Current Version | Previous Version | Graphics & Text | Print | Product List | Glossary Off
Versions: 1 2 3 4 5 6 7 8 9 10 11 12 13 14 15 16 17 18 19 20 21 22 23 24 25 26 27 28 29 30 31 32 33 34 35 36 37 38 39 40 41 42 43 44 45 46 47 48 49 50

000
ASUS43 KFSD 221610
RWRFSD

WEATHER ROUNDUP FOR SE SOUTH DAKOTA/SW MINNESOTA/NW IOWA
NATIONAL WEATHER SERVICE SIOUX FALLS SD
1100 AM CDT SUN OCT 22 2017

NOTE: "FAIR" INDICATES FEW OR NO CLOUDS BELOW 12,000 FEET WITH NO
SIGNIFICANT WEATHER AND OR OBSTRUCTIONS TO VISIBILITY.


SDZ038>040-050-052>070-221700-
SOUTHEAST SOUTH DAKOTA

CITY           SKY/WX    TMP DP  RH WIND       PRES   REMARKS
BROOKINGS      SUNNY     51  37  58 S7        30.02F
CHAMBERLAIN    SUNNY     53  31  42 SW13      29.99F
HURON          SUNNY     55  34  45 S12       29.99F
MADISON        FAIR      50  34  53 SW8       30.03S
MITCHELL       SUNNY     57  33  40 S9        30.03F
SIOUX FALLS    MOSUNNY   56  38  50 SW6       30.05S
WINNER         FAIR      50  29  44 SW15      30.00F
YANKTON        SUNNY     54  34  46 SW9       30.07S
$$

MNZ071-072-080-081-089-090-097-098-221700-
SOUTHWEST MINNESOTA

CITY           SKY/WX    TMP DP  RH WIND       PRES   REMARKS
FAIRMONT       SUNNY     54  40  59 W10       30.05R
JACKSON        SUNNY     54  36  50 SW8       30.05S
LUVERNE        SUNNY     50  34  53 W5        30.06S
MARSHALL       SUNNY     56  35  45 W15       30.02R
MONTEVIDEO     SUNNY     55  37  50 W9        30.00R
PIPESTONE      SUNNY     48  36  61 W6        30.03S
REDWOOD FALLS  SUNNY     54  37  52 W9        30.01R
TRACY          SUNNY     56  38  49 W7        30.03S
WORTHINGTON    SUNNY     52  37  56 W10       30.05S
$$

IAZ001>003-012>014-020>022-031-032-NEZ013-014-SDZ071-221700-
NORTHWEST IOWA

CITY           SKY/WX    TMP DP  RH WIND       PRES   REMARKS
CHEROKEE       SUNNY     54  40  61 W5        30.09R
DENISON        SUNNY     54  43  66 W7        30.12S
ESTHERVILLE    SUNNY     55  38  52 W6        30.05R
LE MARS        SUNNY     55  36  47 CALM      30.08R
ORANGE CITY    SUNNY     54  41  62 W6        30.07R
SHELDON        SUNNY     54  37  54 W5        30.05S
SIOUX CITY     SUNNY     54  38  54 CALM      30.10S
SPENCER        SUNNY     55  38  52 W9        30.07R
STORM LAKE     SUNNY     55  39  54 W9        30.08S
$$

ABBREVIATIONS USED IN REMARKS
   TC - TEMPERATURE IN CELSIUS
  WCI - WIND CHILL INDEX
   HX - HEAT INDEX
  VSB - VISIBILITY





USA.gov is the U.S. government's official web portal to all federal, state and local government web resources and services.